STARLINK-34806 (65065 NORAD) Tracking and Keplerian Element Data

This shows tracking and keplerian element data for the satellite.

Feedback or suggestion? Click here.




ElementValue
Catalog65065
NameSTARLINK-34806
Epoch Orbit2282
Epoch Day354.18648051
Epoch Year2025
RAAN68.8019
Inclination97.6042
Eccentricity8.51E-05
Argument of Perigee70.215
Mean Anonmoly289.9169
Mean Motion15.05654948
Decay Rate2.447E-05
L11 65065U 25165K 25354.18648051 .00002447 00000+0 17371-3 0 9991
L22 65065 97.6042 68.8019 0000851 70.2150 289.9169 15.05654948 22828



Live tracking and technical data element details for STARLINK-34806 (NORAD 65065). STARLINK-34806 can be tracked NOW for your location showing map with azimuth and elevation plus other details from your city location.







IsCatalogInMostPopularTable: catalog: 65065, numindb: 9
Update: records affected: 1



GetName: 65065 STARLINK-34806

Hit Count: updated at: Thu, 21 May 2026 12:00:39 GMT